Location: Noordwijk
(52.2400°N, 4.4500°E)
Time: 07:58:30
(UTC+00:00)

DIWATA 2B (PO-101) - Pass Details

Date: 30 November 2022
Orbit: 583 x 595 km, 98.0° (Epoch: 29 January)

Event Time Altitude Azimuth Distance (km) Brightness Sun altitude
Rises 16:30:51 0° 2° (N) 2,823 ? -8.3°
Reaches altitude 10° 16:33:45 10° 340° (NNW) 1,918 ? -8.7°
Maximum altitude 16:36:11 15° 304° (WNW) 1,591 ? -9.1°
Drops below altitude 10° 16:38:37 10° 267° (W) 1,912 ? -9.4°
Sets 16:41:30 0° 245° (WSW) 2,810 ? -9.8°
